Tracking 18796 objects as of 20-September-2017
HD Live streaming from Space Station
objects crossing your sky now

NILESAT 102

Track NILESAT 102 now!
NILESAT 102 is classified as:


NORAD ID: 26470
Int'l Code: 2000-046B
Perigee: 35,772.0 km
Apogee: 35,814.8 km
Inclination: 1.9 °
Period: 1,436.1 minutes
Semi major axis: 42164 km
RCS: 27.8959 m2 (large)
Launch date: August 17, 2000
Source: Egypt (EGYP)
Launch site: FRENCH GUIANA (FRGUI)

Large parts of the Arab world, the Middle East, north and central Africa and southern Europe.
aabbcc
Your satellite tracking list
Your tracking list is empty





NASA's NSSDC Master Catalog

Two Line Element Set (TLE):
1 26470U 00046B   17262.87268192 -.00000088 +00000-0 +00000-0 0  9997
2 26470 001.8730 083.2448 0005073 122.2142 100.6682 01.00273066013189
Source of the keplerian elements: AFSPC